QPF
0.00 0.00 0.00 0.00 0.00 0.00 0.00 0.00 0.00 0.00 0.00 0.00 0.00 0.00 0.00 0.00 0.00 0.00 0.00 0.00 0.00 0.00 0.00 0.00 0.00 0.00 0.00 0.00 0.00 0.00 0.00 0.00 0.00 0.00 0.00 0.00 0.00 0.00 0.00 0.00 0.00 0.00 0.00 0.00
0.00 0.00 0.00 0.00 0.00 0.00 0.00 0.00 0.00 0.00 0.00 0.00 0.00 0.00 0.00 0.00 0.00 0.00 0.00 0.00 0.00 0.00 0.00 0.00 0.00 0.00 0.00 0.00 0.00 0.00 0.00 0.00 0.00 0.00 0.00 0.00 0.00 0.00 0.00 0.00 0.00 0.00 0.00 0.00
0.00 0.00 0.00 0.00 0.00 0.00 0.00 0.00 0.00 0.00 0.00 0.00 0.00 0.00 0.00 0.00 0.00 0.00 0.00 0.00 0.00 0.00 0.00 0.00 0.00 0.00 0.00 0.00 0.00 0.00 0.00 0.00 0.00 0.00 0.00 0.00 0.00 0.00 0.00 0.00 0.00 0.00 0.00 0.00
0.00 0.00 0.00 0.00 0.00 0.00 0.00 0.00 0.00 0.00 0.00 0.00 0.00 0.00 0.00 0.00 0.00 0.00 0.00 0.00 0.00 0.00 0.00 0.00 0.00 0.00 0.00 0.00 0.00 0.00 0.00 0.00 0.00 0.00 0.00 0.00 0.00 0.00 0.00 0.00 0.00 0.00 0.00 0.00
0.00 0.00 0.00 0.00 0.00 0.00 0.00 0.00 0.00 0.00 0.00 0.00 0.00 0.00 0.00 0.00 0.00 0.00 0.00 0.00 0.00 0.00 0.00 0.00 0.00 0.00 0.00 0.00 0.00 0.00 0.00 0.00 0.00 0.00 0.00 0.00 0.01 0.01 0.00 0.00 0.00 0.00 0.00 0.00
0.00 0.00 0.00 0.00 0.00 0.00 0.00 0.00 0.00 0.00 0.00 0.00 0.00 0.00 0.00 0.00 0.00 0.00 0.00 0.00 0.00 0.00 0.00 0.00 0.00 0.00 0.00 0.00 0.00 0.00 0.00 0.00 0.00 0.00 0.00 0.00 0.00 0.00 0.00 0.01 0.01 0.01 0.00 0.00
0.00 0.00 0.00 0.00 0.00 0.00 0.00 0.00 0.00 0.00 0.00 0.00 0.00 0.00 0.00 0.00 0.00 0.00 0.00 0.00 0.00 0.00 0.00 0.00 0.00 0.00 0.00 0.00 0.00 0.00 0.00 0.00 0.00 0.00 0.00 0.00 0.00 0.00 0.00 0.01 0.01 0.01 0.01 0.00
0.00 0.00 0.00 0.00 0.00 0.00 0.00 0.00 0.00 0.00 0.00 0.00 0.00 0.00 0.00 0.00 0.00 0.00 0.00 0.00 0.00 0.00 0.00 0.00 0.00 0.00 0.00 0.00 0.00 0.00 0.00 0.00 0.00 0.00 0.00 0.00 0.00 0.00 0.00 0.00 0.01 0.01 0.00 0.00
0.00 0.00 0.00 0.00 0.00 0.00 0.00 0.00 0.00 0.00 0.00 0.00 0.00 0.00 0.00 0.00 0.00 0.00 0.00 0.00 0.00 0.00 0.00 0.00 0.00 0.00 0.00 0.00 0.00 0.00 0.00 0.00 0.00 0.00 0.00 0.00 0.00 0.00 0.00 0.00 0.00 0.01 0.00 0.00
0.00 0.00 0.00 0.00 0.00 0.00 0.00 0.00 0.00 0.00 0.00 0.00 0.00 0.00 0.00 0.00 0.00 0.00 0.00 0.00 0.00 0.00 0.00 0.00 0.00 0.00 0.00 0.00 0.00 0.00 0.00 0.00 0.00 0.00 0.00 0.00 0.00 0.00 0.00 0.00 0.00 0.00 0.01 0.00
0.00 0.00 0.00 0.00 0.00 0.00 0.00 0.00 0.00 0.00 0.00 0.00 0.00 0.00 0.00 0.00 0.00 0.00 0.00 0.00 0.00 0.00 0.00 0.00 0.00 0.00 0.00 0.00 0.00 0.00 0.00 0.00 0.00 0.00 0.00 0.00 0.00 0.00 0.00 0.00 0.00 0.01 0.01 0.00
0.00 0.00 0.00 0.00 0.00 0.00 0.00 0.00 0.00 0.00 0.00 0.00 0.00 0.00 0.00 0.00 0.00 0.00 0.00 0.00 0.00 0.00 0.00 0.00 0.00 0.00 0.00 0.00 0.00 0.00 0.00 0.00 0.00 0.00 0.00 0.00 0.00 0.00 0.00 0.00 0.00 0.01 0.01 0.01
0.00 0.00 0.00 0.00 0.00 0.00 0.00 0.00 0.00 0.00 0.00 0.00 0.00 0.00 0.00 0.00 0.00 0.00 0.00 0.00 0.00 0.00 0.00 0.00 0.00 0.00 0.00 0.00 0.00 0.00 0.00 0.00 0.00 0.00 0.00 0.00 0.00 0.00 0.00 0.00 0.00 0.00 0.00 0.00
0.00 0.00 0.00 0.00 0.00 0.00 0.00 0.00 0.00 0.00 0.00 0.00 0.00 0.00 0.00 0.00 0.00 0.00 0.00 0.00 0.00 0.00 0.00 0.00 0.00 0.00 0.00 0.00 0.00 0.00 0.00 0.00 0.00 0.00 0.00 0.00 0.00 0.00 0.00 0.00 0.00 0.00 0.00 0.00
0.00 0.00 0.00 0.00 0.00 0.00 0.00 0.00 0.00 0.00 0.00 0.00 0.00 0.00 0.00 0.00 0.00 0.00 0.00 0.00 0.00 0.00 0.00 0.00 0.00 0.00 0.00 0.00 0.00 0.00 0.00 0.00 0.00 0.00 0.00 0.00 0.00 0.00 0.00 0.00 0.00 0.00 0.00 0.00
0.00 0.00 0.00 0.00 0.00 0.00 0.00 0.00 0.00 0.00 0.00 0.00 0.00 0.00 0.00 0.00 0.00 0.00 0.00 0.00 0.00 0.00 0.00 0.00 0.00 0.00 0.00 0.00 0.00 0.00 0.00 0.00 0.00 0.00 0.00 0.00 0.00 0.00 0.00 0.00 0.00 0.00 0.00 0.00
0.00 0.00 0.00 0.00 0.00 0.00 0.00 0.00 0.00 0.00 0.00 0.00 0.00 0.00 0.00 0.00 0.00 0.00 0.00 0.00 0.00 0.00 0.00 0.00 0.00 0.00 0.00 0.00 0.00 0.00 0.00 0.00 0.00 0.00 0.00 0.00 0.00 0.00 0.00 0.00 0.00 0.00 0.00 0.00
0.00 0.00 0.00 0.00 0.00 0.00 0.00 0.00 0.00 0.00 0.00 0.00 0.00 0.00 0.00 0.00 0.00 0.00 0.00 0.00 0.00 0.00 0.00 0.00 0.00 0.00 0.00 0.00 0.00 0.00 0.00 0.00 0.00 0.00 0.00 0.00 0.00 0.00 0.00 0.00 0.00 0.00 0.00 0.00
0.00 0.00 0.00 0.00 0.00 0.00 0.00 0.00 0.00 0.00 0.00 0.00 0.00 0.00 0.00 0.00 0.00 0.00 0.00 0.00 0.00 0.00 0.00 0.00 0.00 0.00 0.00 0.00 0.00 0.00 0.00 0.00 0.00 0.00 0.00 0.00 0.00 0.00 0.00 0.00 0.00 0.00 0.00 0.00
0.00 0.00 0.00 0.00 0.00 0.00 0.00 0.00 0.00 0.00 0.00 0.00 0.00 0.00 0.00 0.00 0.00 0.00 0.00 0.00 0.00 0.00 0.00 0.00 0.00 0.00 0.00 0.00 0.00 0.00 0.00 0.00 0.00 0.00 0.01 0.00 0.00 0.00 0.00 0.00 0.00 0.00 0.00 0.00
0.00 0.00 0.00 0.00 0.00 0.00 0.00 0.00 0.00 0.00 0.00 0.00 0.00 0.00 0.00 0.00 0.00 0.00 0.00 0.00 0.00 0.00 0.00 0.00 0.00 0.00 0.00 0.00 0.00 0.00 0.00 0.00 0.01 0.01 0.01 0.00 0.00 0.00 0.00 0.00 0.00 0.00 0.00 0.01
0.00 0.00 0.00 0.00 0.00 0.00 0.00 0.00 0.00 0.00 0.00 0.00 0.00 0.00 0.00 0.00 0.00 0.00 0.00 0.00 0.00 0.00 0.00 0.00 0.00 0.00 0.00 0.00 0.00 0.00 0.00 0.01 0.01 0.02 0.01 0.01 0.00 0.00 0.00 0.00 0.00 0.00 0.00 0.00
0.00 0.00 0.00 0.00 0.00 0.00 0.00 0.00 0.00 0.00 0.00 0.00 0.00 0.00 0.00 0.00 0.00 0.00 0.00 0.00 0.00 0.00 0.00 0.00 0.00 0.00 0.00 0.00 0.00 0.00 0.00 0.01 0.01 0.01 0.02 0.01 0.01 0.01 0.00 0.00 0.00 0.00 0.00 0.00
0.00 0.00 0.00 0.00 0.00 0.00 0.00 0.00 0.00 0.00 0.00 0.00 0.00 0.00 0.00 0.00 0.00 0.00 0.00 0.00 0.00 0.00 0.00 0.00 0.00 0.00 0.00 0.00 0.00 0.00 0.00 0.01 0.00 0.02 0.02 0.01 0.04 0.05 0.01 0.00 0.00 0.00 0.00 0.00
0.00 0.00 0.00 0.00 0.00 0.00 0.00 0.00 0.00 0.00 0.00 0.00 0.00 0.00 0.00 0.00 0.00 0.00 0.00 0.00 0.00 0.00 0.00 0.00 0.00 0.00 0.00 0.00 0.00 0.00 0.00 0.03 0.05 0.06 0.03 0.03 0.07 0.13 0.06 0.00 0.00 0.00 0.00 0.00
0.00 0.00 0.00 0.00 0.00 0.00 0.00 0.00 0.00 0.00 0.00 0.00 0.00 0.00 0.00 0.00 0.00 0.00 0.00 0.00 0.00 0.00 0.00 0.00 0.00 0.00 0.00 0.00 0.00 0.00 0.00 0.10 0.16 0.12 0.10 0.07 0.10 0.13 0.02 0.00 0.00 0.00 0.00 0.00
MSLP
1009.19 1008.94 1008.42 1008.24 1008.36 1008.37 1008.30 1008.06 1007.69 1007.16 1007.02 1007.02 1006.87 1006.80 1007.03 1007.58 1008.05 1008.46 1008.82 1009.10 1009.29 1009.26 1009.38 1009.96 1010.26 1010.59 1010.98 1011.43 1012.08 1012.36 1012.89 1013.26 1013.88 1014.28 1014.49 1014.70 1014.64 1014.90 1015.03 1015.02 1015.17 1015.51 1015.76 1015.91
1008.91 1008.21 1007.90 1007.95 1008.00 1008.02 1007.86 1007.56 1007.16 1007.03 1006.95 1007.02 1006.54 1006.16 1006.26 1006.76 1007.15 1007.73 1007.97 1008.19 1008.39 1008.72 1008.98 1009.13 1009.20 1009.61 1009.95 1010.30 1010.91 1011.44 1011.81 1012.32 1012.75 1013.11 1013.38 1013.78 1014.05 1014.17 1014.26 1014.42 1014.59 1014.94 1015.11 1015.36
1008.33 1007.45 1007.46 1007.49 1007.43 1007.38 1007.16 1007.16 1007.05 1006.89 1007.00 1007.05 1006.87 1005.91 1006.00 1006.38 1006.58 1006.91 1007.13 1007.36 1007.56 1007.72 1007.95 1008.11 1008.42 1008.72 1009.20 1009.48 1009.90 1010.26 1010.65 1011.15 1011.68 1012.06 1013.00 1013.48 1013.71 1013.80 1013.78 1013.81 1014.05 1014.05 1014.40 1014.64
1007.72 1007.18 1006.95 1006.79 1006.62 1006.65 1006.46 1006.74 1006.81 1006.77 1006.80 1006.83 1007.18 1006.19 1005.99 1006.10 1006.00 1006.03 1006.11 1006.36 1006.62 1006.89 1007.30 1007.48 1007.72 1007.93 1008.10 1008.10 1008.97 1009.38 1009.87 1010.48 1011.07 1011.77 1012.09 1012.27 1012.22 1012.30 1012.24 1012.70 1013.02 1013.48 1013.88 1014.02
1007.06 1006.70 1006.42 1006.18 1005.88 1006.12 1006.28 1006.24 1006.40 1006.55 1006.65 1006.78 1006.90 1006.43 1005.42 1005.70 1005.22 1004.93 1004.93 1005.20 1005.40 1005.72 1006.12 1006.32 1006.66 1007.01 1007.21 1007.78 1008.21 1008.83 1009.55 1010.04 1010.44 1010.94 1011.14 1011.22 1011.50 1011.16 1011.36 1011.83 1012.20 1012.69 1013.08 1013.42
1006.83 1006.66 1006.31 1005.60 1005.40 1005.58 1005.85 1006.04 1006.22 1006.52 1006.56 1006.50 1006.94 1006.37 1004.68 1004.60 1004.36 1003.99 1004.14 1004.31 1004.58 1004.90 1005.44 1005.77 1006.20 1006.67 1006.90 1007.44 1007.94 1008.48 1009.02 1009.37 1010.11 1010.58 1010.91 1010.88 1010.73 1010.83 1011.27 1011.33 1011.54 1011.72 1012.09 1012.36
1006.24 1005.90 1005.54 1005.37 1005.24 1005.40 1005.35 1005.12 1005.25 1005.71 1005.96 1006.24 1007.02 1006.33 1004.45 1004.25 1004.05 1003.92 1003.74 1003.68 1003.79 1004.52 1005.10 1005.50 1005.89 1006.28 1006.75 1007.18 1007.67 1008.13 1008.72 1009.06 1009.61 1010.04 1010.26 1010.44 1010.54 1010.93 1010.98 1011.13 1011.32 1011.44 1011.50 1011.62
1006.01 1005.33 1005.11 1004.98 1004.82 1004.70 1005.06 1005.03 1005.24 1005.49 1005.86 1006.28 1006.87 1005.51 1003.99 1003.96 1003.90 1003.73 1003.64 1003.63 1003.89 1004.20 1004.66 1005.11 1005.50 1005.88 1006.36 1006.86 1007.44 1007.95 1008.42 1008.94 1009.37 1009.64 1009.81 1010.04 1010.17 1010.21 1010.31 1010.59 1010.63 1011.00 1010.86 1010.71
1005.83 1005.33 1004.89 1004.87 1004.71 1004.87 1005.32 1005.43 1005.76 1005.80 1006.82 1006.32 1005.92 1005.28 1004.01 1003.74 1003.61 1003.62 1003.50 1003.51 1003.39 1003.87 1004.42 1004.80 1005.36 1005.62 1006.12 1006.70 1007.23 1007.80 1008.34 1008.75 1009.00 1009.16 1009.32 1009.40 1009.54 1009.62 1009.49 1009.82 1010.02 1009.93 1010.00 1010.03
1006.06 1005.61 1005.08 1004.80 1004.89 1005.23 1005.10 1005.67 1005.76 1005.72 1005.78 1005.64 1005.40 1004.90 1003.91 1003.69 1003.72 1003.82 1003.54 1003.06 1002.94 1003.64 1004.26 1004.72 1005.21 1005.49 1006.13 1006.80 1007.46 1007.85 1008.22 1008.48 1008.71 1008.88 1009.05 1009.10 1009.21 1009.29 1009.26 1009.26 1009.17 1009.25 1009.27 1009.52
1006.00 1005.93 1005.26 1005.10 1005.20 1005.55 1005.62 1005.67 1006.24 1006.24 1006.19 1005.50 1005.00 1004.07 1004.25 1004.10 1004.09 1003.94 1003.51 1003.21 1003.17 1003.64 1004.02 1004.44 1004.96 1005.73 1006.12 1006.75 1007.23 1007.75 1008.14 1008.32 1008.55 1008.74 1008.81 1008.88 1008.87 1008.88 1008.86 1008.88 1008.85 1008.79 1008.89 1009.04
1006.19 1005.95 1005.39 1005.35 1005.98 1006.28 1006.08 1006.12 1006.21 1005.90 1006.38 1006.59 1005.80 1004.28 1003.97 1004.02 1003.88 1003.90 1003.36 1003.16 1003.35 1003.92 1004.29 1004.56 1004.99 1005.72 1006.25 1006.68 1007.04 1007.50 1007.90 1008.10 1008.30 1008.45 1008.51 1008.47 1008.40 1008.36 1008.37 1008.44 1008.46 1008.50 1008.56 1008.77
1006.07 1006.06 1005.54 1005.36 1005.96 1006.14 1005.87 1006.06 1006.40 1006.45 1006.42 1005.87 1005.22 1003.87 1003.76 1003.61 1003.26 1002.98 1003.09 1002.93 1003.42 1003.79 1004.16 1004.59 1005.13 1005.59 1006.15 1006.51 1006.72 1007.06 1007.44 1007.71 1008.04 1008.24 1008.25 1008.15 1008.09 1008.06 1008.09 1008.02 1008.03 1008.20 1008.37 1008.58
1005.88 1005.92 1005.50 1005.37 1005.52 1005.82 1005.65 1005.68 1006.04 1005.86 1005.56 1004.80 1004.48 1003.56 1003.38 1002.84 1002.75 1002.49 1002.67 1003.00 1003.22 1003.60 1004.14 1004.44 1005.01 1005.61 1006.03 1006.18 1006.37 1006.70 1007.04 1007.36 1007.63 1007.85 1007.90 1007.81 1007.80 1007.77 1007.71 1007.73 1007.76 1007.88 1008.20 1008.54
1005.95 1005.64 1005.93 1005.59 1005.73 1005.90 1005.60 1005.44 1005.52 1005.52 1005.03 1004.79 1003.72 1003.34 1002.91 1002.46 1002.62 1002.56 1002.85 1003.01 1003.30 1003.40 1003.93 1004.42 1004.95 1005.27 1005.52 1005.75 1006.04 1006.34 1006.62 1006.94 1007.17 1007.37 1007.47 1007.45 1007.49 1007.53 1007.24 1007.46 1007.60 1007.92 1008.13 1008.47
1006.21 1006.14 1006.26 1005.78 1005.52 1005.70 1005.28 1005.02 1004.92 1004.82 1004.57 1004.47 1003.78 1003.40 1002.37 1002.46 1002.64 1002.60 1002.71 1002.94 1003.17 1003.48 1003.94 1004.41 1004.60 1004.82 1005.09 1005.35 1005.52 1005.74 1006.00 1006.30 1006.70 1006.87 1006.96 1007.11 1007.14 1007.14 1007.08 1007.20 1007.62 1007.86 1008.16 1008.59
1006.40 1006.44 1006.66 1005.76 1006.08 1005.83 1005.01 1004.22 1004.12 1004.14 1004.18 1003.92 1003.58 1003.10 1003.10 1002.89 1002.81 1002.68 1002.59 1002.85 1003.00 1003.34 1003.67 1003.96 1004.17 1004.39 1004.53 1004.62 1004.89 1005.11 1005.49 1005.94 1006.30 1006.56 1006.74 1006.87 1006.88 1006.90 1006.94 1007.04 1007.24 1007.50 1007.82 1008.20
1006.64 1007.00 1007.05 1006.23 1006.32 1005.30 1004.03 1004.58 1004.48 1004.53 1004.28 1004.46 1004.21 1003.76 1003.61 1003.58 1003.20 1002.78 1002.62 1002.76 1002.97 1003.18 1003.34 1003.49 1003.69 1003.86 1003.92 1003.98 1004.32 1004.87 1005.15 1005.43 1005.78 1006.03 1006.30 1006.44 1006.58 1006.60 1006.60 1006.81 1006.91 1007.09 1007.34 1007.59
1006.85 1007.10 1007.14 1007.12 1006.28 1005.36 1004.59 1004.80 1005.04 1004.91 1004.67 1004.88 1004.74 1004.27 1003.93 1003.90 1003.53 1002.46 1002.63 1002.81 1002.86 1003.04 1003.08 1003.20 1003.32 1003.44 1003.58 1003.69 1003.97 1004.49 1004.64 1004.90 1005.20 1005.40 1005.74 1006.00 1006.11 1006.21 1006.26 1006.34 1006.50 1006.67 1006.95 1007.18
1007.65 1007.60 1007.15 1007.57 1006.71 1005.44 1005.30 1005.23 1005.54 1005.63 1005.10 1005.14 1005.17 1004.72 1004.46 1004.29 1003.62 1002.80 1003.14 1002.98 1002.96 1003.04 1003.13 1003.15 1003.24 1003.47 1003.56 1003.44 1003.87 1004.08 1004.00 1004.32 1004.32 1004.69 1005.15 1005.55 1005.84 1006.03 1006.11 1006.07 1006.05 1006.21 1006.44 1006.71
1007.44 1007.62 1007.36 1007.04 1006.70 1005.86 1005.93 1005.84 1005.71 1005.89 1006.30 1005.70 1005.38 1005.17 1004.96 1004.76 1004.22 1004.17 1003.73 1003.26 1002.94 1002.87 1002.98 1003.16 1003.40 1003.37 1003.15 1002.94 1003.36 1003.42 1003.51 1003.53 1003.56 1004.11 1004.58 1005.04 1005.44 1005.63 1005.66 1005.74 1005.90 1006.00 1006.26 1006.38
1007.02 1007.15 1007.20 1007.53 1007.16 1006.70 1006.66 1006.32 1006.48 1006.80 1006.53 1006.20 1005.86 1005.39 1005.08 1004.58 1004.16 1004.04 1003.62 1003.39 1003.18 1003.19 1003.24 1003.16 1003.24 1002.98 1002.66 1002.75 1003.11 1002.87 1002.94 1002.56 1003.18 1003.56 1003.88 1004.21 1004.71 1004.99 1005.14 1005.48 1005.65 1005.72 1005.98 1006.20
1007.68 1007.33 1007.26 1007.46 1007.06 1007.33 1007.39 1007.18 1006.91 1007.08 1006.97 1006.47 1006.18 1005.42 1005.14 1004.54 1004.06 1003.86 1003.72 1003.58 1003.44 1003.52 1003.43 1003.27 1003.26 1002.93 1002.46 1002.46 1002.61 1002.60 1001.98 1002.36 1002.43 1002.74 1002.94 1003.26 1004.01 1004.44 1004.76 1005.12 1005.42 1005.43 1005.64 1005.86
1007.99 1008.33 1008.00 1008.01 1007.80 1007.69 1007.44 1007.16 1007.33 1007.33 1007.07 1006.39 1005.84 1005.36 1004.98 1004.61 1004.30 1004.17 1004.08 1004.07 1004.06 1003.94 1003.75 1003.58 1003.36 1002.92 1002.56 1002.18 1002.12 1001.97 1001.72 1001.63 1002.66 1002.59 1002.89 1003.05 1003.25 1003.97 1004.39 1004.67 1004.94 1005.13 1005.05 1005.30
1009.18 1009.11 1009.26 1008.71 1008.28 1008.15 1007.51 1007.70 1007.89 1007.48 1007.00 1006.43 1005.80 1005.32 1005.11 1004.90 1004.72 1004.74 1004.50 1004.33 1004.00 1003.81 1003.82 1003.78 1003.22 1003.20 1002.57 1002.14 1001.75 1001.36 1001.06 1001.35 1001.96 1001.22 1002.87 1003.60 1003.58 1003.95 1004.06 1004.18 1004.19 1004.52 1004.28 1004.35
1010.36 1010.48 1010.08 1009.33 1009.64 1009.85 1008.91 1008.44 1008.33 1007.76 1007.13 1006.67 1006.16 1005.62 1005.54 1005.44 1005.22 1005.05 1004.84 1004.56 1004.44 1004.18 1003.80 1003.56 1003.13 1002.71 1002.21 1001.78 1001.33 1000.94 1000.72 1000.68 1001.05 1001.39 1001.56 1000.39 1002.50 1003.33 1003.22 1003.35 1003.59 1004.12 1004.26 1004.44
Thickness
5816 5810 5809 5820 5820 5820 5815 5810 5807 5823 5832 5823 5821 5822 5829 5831 5827 5823 5823 5824 5824 5826 5833 5832 5831 5830 5828 5826 5819 5816 5811 5809 5803 5798 5793 5790 5787 5786 5785 5782 5779 5775 5772 5770
5813 5809 5828 5829 5826 5821 5818 5812 5815 5826 5833 5826 5828 5830 5838 5837 5834 5833 5831 5831 5831 5831 5833 5836 5839 5837 5835 5832 5827 5822 5818 5815 5811 5808 5804 5798 5794 5792 5788 5785 5781 5775 5772 5769
5806 5827 5835 5828 5824 5818 5823 5815 5815 5819 5826 5829 5823 5829 5831 5839 5841 5841 5843 5844 5841 5839 5838 5841 5841 5841 5840 5837 5834 5832 5828 5823 5818 5815 5805 5798 5795 5791 5788 5786 5781 5779 5774 5770
5819 5836 5831 5829 5825 5829 5820 5831 5828 5823 5819 5808 5821 5801 5825 5832 5837 5842 5846 5847 5846 5846 5845 5845 5844 5844 5845 5848 5843 5838 5834 5827 5822 5815 5808 5802 5800 5793 5794 5789 5785 5778 5771 5768
5823 5829 5829 5825 5832 5835 5826 5838 5831 5827 5820 5817 5814 5810 5832 5831 5835 5847 5856 5855 5858 5858 5856 5854 5853 5853 5854 5851 5846 5840 5833 5827 5823 5817 5812 5808 5801 5805 5801 5793 5786 5778 5772 5764
5828 5843 5837 5841 5847 5844 5843 5832 5828 5824 5819 5798 5803 5810 5829 5837 5845 5857 5862 5863 5864 5863 5859 5858 5858 5856 5853 5851 5847 5842 5834 5828 5821 5815 5810 5807 5804 5800 5792 5790 5783 5778 5774 5769
5826 5828 5842 5847 5835 5842 5839 5834 5808 5800 5800 5799 5802 5804 5833 5848 5856 5858 5862 5868 5872 5865 5861 5857 5854 5852 5850 5848 5845 5841 5833 5826 5821 5815 5811 5806 5802 5795 5790 5784 5778 5774 5769 5765
5803 5807 5835 5847 5843 5837 5834 5835 5808 5777 5789 5798 5799 5803 5837 5856 5861 5864 5866 5869 5867 5863 5863 5859 5856 5854 5851 5847 5843 5837 5830 5822 5817 5812 5807 5803 5799 5795 5790 5783 5778 5770 5767 5766
5807 5812 5845 5846 5851 5847 5824 5821 5829 5804 5784 5791 5803 5820 5849 5855 5856 5856 5859 5863 5866 5864 5860 5859 5855 5853 5848 5842 5837 5831 5824 5818 5813 5809 5804 5800 5796 5791 5788 5782 5775 5770 5765 5761
5824 5807 5834 5842 5848 5842 5839 5835 5816 5810 5782 5776 5798 5797 5817 5837 5842 5848 5851 5861 5867 5862 5857 5855 5850 5848 5843 5837 5831 5826 5820 5815 5810 5805 5799 5795 5790 5786 5782 5777 5772 5766 5762 5756
5832 5821 5826 5835 5828 5818 5825 5820 5807 5809 5798 5790 5783 5806 5833 5832 5837 5838 5848 5858 5861 5856 5854 5852 5846 5840 5837 5831 5825 5818 5812 5807 5803 5798 5793 5789 5785 5781 5776 5772 5767 5763 5757 5751
5832 5824 5810 5818 5824 5824 5823 5814 5813 5801 5783 5772 5778 5798 5839 5837 5840 5838 5846 5851 5854 5849 5847 5846 5840 5832 5826 5820 5815 5810 5805 5802 5797 5792 5787 5783 5781 5776 5771 5765 5761 5757 5751 5745
5831 5815 5801 5808 5816 5818 5816 5815 5805 5802 5794 5781 5775 5795 5836 5837 5841 5849 5842 5849 5845 5842 5841 5837 5830 5824 5818 5812 5808 5803 5799 5795 5790 5783 5779 5776 5772 5768 5762 5759 5756 5750 5744 5738
5834 5814 5813 5796 5805 5812 5805 5810 5805 5806 5791 5796 5794 5803 5821 5834 5836 5846 5845 5842 5840 5836 5833 5829 5821 5814 5808 5804 5800 5794 5790 5787 5782 5776 5771 5767 5763 5760 5756 5753 5748 5743 5736 5729
5829 5811 5806 5814 5811 5806 5809 5809 5807 5795 5806 5788 5808 5808 5821 5833 5832 5838 5837 5835 5832 5829 5825 5820 5812 5806 5802 5797 5792 5787 5782 5778 5774 5767 5761 5757 5753 5750 5750 5744 5740 5733 5727 5721
5820 5803 5799 5805 5814 5804 5801 5811 5808 5805 5806 5798 5805 5802 5836 5838 5834 5830 5829 5827 5823 5821 5817 5811 5807 5802 5795 5790 5785 5780 5775 5769 5764 5758 5753 5749 5744 5741 5738 5735 5728 5723 5718 5711
5812 5799 5789 5790 5794 5792 5792 5814 5817 5815 5815 5811 5796 5817 5825 5822 5822 5823 5824 5820 5817 5814 5810 5805 5801 5796 5791 5786 5781 5773 5767 5760 5752 5747 5741 5737 5733 5729 5727 5724 5720 5716 5710 5704
5799 5788 5781 5786 5784 5764 5816 5820 5815 5806 5811 5809 5806 5812 5812 5807 5813 5818 5820 5814 5810 5807 5803 5799 5794 5790 5786 5782 5775 5766 5759 5750 5742 5736 5731 5727 5723 5720 5718 5714 5711 5709 5705 5700
5806 5792 5778 5771 5774 5788 5804 5803 5797 5792 5795 5801 5795 5801 5805 5802 5803 5814 5812 5809 5806 5801 5797 5793 5790 5784 5778 5773 5767 5756 5749 5742 5734 5728 5722 5717 5715 5712 5710 5707 5704 5702 5698 5694
5788 5785 5785 5757 5757 5755 5782 5799 5800 5791 5770 5791 5787 5787 5786 5787 5777 5795 5796 5797 5794 5790 5786 5781 5778 5770 5763 5761 5753 5746 5741 5733 5727 5722 5714 5709 5704 5700 5697 5698 5698 5695 5693 5690
5779 5771 5770 5768 5761 5774 5785 5790 5791 5755 5757 5779 5781 5778 5775 5769 5778 5777 5782 5783 5784 5780 5774 5770 5761 5754 5753 5755 5745 5737 5732 5726 5724 5717 5708 5702 5697 5692 5691 5690 5688 5687 5684 5683
5779 5771 5766 5752 5747 5747 5779 5779 5756 5762 5769 5770 5769 5770 5766 5770 5771 5770 5772 5769 5768 5762 5758 5755 5747 5744 5746 5743 5733 5728 5723 5725 5716 5709 5702 5697 5692 5689 5686 5682 5680 5680 5678 5676
5759 5777 5772 5766 5766 5766 5768 5764 5770 5763 5759 5761 5759 5764 5761 5761 5762 5761 5757 5754 5750 5745 5742 5740 5732 5729 5731 5727 5721 5715 5719 5714 5710 5705 5700 5695 5688 5683 5680 5674 5672 5673 5672 5670
5765 5761 5759 5756 5758 5756 5759 5764 5757 5754 5750 5755 5756 5755 5755 5750 5750 5747 5743 5738 5733 5731 5727 5724 5718 5716 5715 5718 5713 5711 5711 5711 5694 5691 5687 5687 5683 5675 5673 5671 5668 5667 5669 5668
5749 5747 5736 5740 5748 5748 5754 5749 5743 5743 5745 5746 5748 5746 5742 5738 5734 5729 5725 5722 5722 5721 5716 5709 5707 5703 5703 5705 5705 5706 5705 5700 5684 5680 5671 5667 5670 5664 5663 5666 5666 5665 5671 5672
5732 5725 5728 5728 5728 5718 5726 5733 5732 5730 5732 5733 5732 5731 5728 5724 5719 5716 5712 5711 5707 5703 5703 5699 5698 5697 5696 5695 5696 5697 5697 5694 5687 5679 5676 5685 5666 5662 5664 5663 5664 5661 5662 5662